Wind_Speed
2 2 2 2 1 2 5 10 14 17 19 21 20 18 16 13 10 8 7 12 14 12 11 10 7 6 6 6 7 7 6 6 5 3 5 7 5 7 7 8 9 10 11 11 12 13 15 18 22 24 25 26 27 28 29 29 30 30 30 31 33 33 32 32 33 33 33 33 32 33 33 33 34 34 33 32 32 31 30 29 29 30 30 29 28 26 27
3 4 2 1 1 2 4 7 9 11 14 16 16 16 17 17 15 12 11 13 13 12 12 13 12 10 10 9 9 10 12 13 11 8 9 10 7 5 5 7 9 9 9 10 11 12 13 15 20 23 23 25 27 29 29 29 30 31 30 31 32 32 32 32 31 31 31 31 31 31 33 33 34 34 33 31 31 31 31 29 28 29 29 29 28 27 27
5 5 4 4 3 4 6 9 10 11 12 13 13 12 13 15 14 14 15 14 12 10 9 10 10 8 8 8 10 12 13 15 16 14 13 11 10 9 7 5 7 6 7 8 10 12 14 16 19 22 23 25 27 28 28 28 30 31 30 30 31 32 33 31 29 29 30 31 30 31 32 33 33 33 33 31 30 30 30 29 28 28 28 29 28 28 27
6 6 6 6 5 6 10 12 13 14 13 13 12 11 12 12 12 14 15 13 10 8 8 8 8 9 10 11 12 12 12 14 16 15 14 13 12 12 12 7 4 5 6 8 10 12 14 16 20 23 23 24 25 27 28 29 29 29 29 30 30 31 31 29 28 29 30 30 29 30 31 32 31 31 31 30 29 29 29 29 29 28 28 29 29 28 27
5 6 5 4 4 7 11 12 15 17 16 14 14 13 14 14 13 13 12 10 8 8 9 10 10 11 13 13 12 12 12 13 15 16 15 15 15 15 14 11 6 5 5 7 9 11 12 15 20 23 24 24 26 27 27 26 25 26 29 30 29 28 28 27 27 28 28 28 29 29 30 30 29 29 30 30 30 29 28 28 28 28 28 28 29 29 29
4 4 2 3 6 9 6 3 7 14 16 16 16 15 15 15 14 12 11 9 8 8 8 8 8 9 10 11 11 11 11 10 12 14 15 15 15 15 14 13 10 6 5 5 7 9 11 14 17 20 24 26 26 25 25 25 25 26 28 29 27 25 26 26 26 27 27 28 28 28 28 28 27 28 30 31 30 28 27 28 28 28 28 28 29 29 30
5 2 2 7 8 5 2 4 3 4 8 10 11 11 12 13 13 14 14 12 11 10 9 8 9 10 10 11 11 11 12 10 9 12 13 13 14 14 13 13 11 6 5 5 6 7 9 12 14 17 22 24 23 23 24 26 28 28 28 28 27 25 26 28 28 27 29 29 27 27 26 27 27 28 28 29 29 29 28 28 28 29 29 29 29 29 29
5 4 6 8 3 2 2 3 4 3 5 6 7 11 14 13 10 9 10 10 10 11 11 10 10 10 9 9 9 11 13 12 11 13 14 14 14 12 10 8 7 5 5 7 7 7 8 10 13 16 18 20 21 22 24 26 27 27 27 27 27 27 27 30 30 30 30 30 28 27 27 27 28 29 29 30 30 30 29 28 28 29 29 30 30 30 31
6 6 7 7 3 3 4 5 5 3 4 4 3 8 8 5 1 1 4 7 9 10 9 8 7 8 8 8 9 13 16 15 14 14 13 12 10 8 7 7 7 7 8 9 9 9 10 12 13 14 15 17 19 21 23 24 25 26 27 27 28 28 28 30 31 30 30 30 29 28 28 29 30 31 31 32 31 30 30 29 28 29 30 30 30 31 33
6 6 7 7 7 7 5 6 7 5 3 3 2 4 3 6 5 1 2 4 6 8 6 5 5 6 7 9 8 10 13 13 11 10 9 7 7 6 6 7 8 8 9 9 10 10 11 12 12 12 13 16 18 19 21 23 24 24 26 27 28 29 28 27 28 28 28 28 28 29 29 30 32 32 32 31 30 29 29 29 29 29 28 29 29 31 33
7 8 8 8 7 4 3 7 8 6 3 2 2 4 5 5 6 2 2 3 5 5 5 5 4 4 8 9 4 5 8 5 3 4 4 4 4 5 6 7 8 8 9 10 11 12 11 11 11 12 13 15 17 19 20 21 22 23 26 28 27 26 24 23 23 25 27 28 29 29 31 32 32 31 30 28 27 27 28 28 28 27 26 27 29 30 30
7 8 8 6 6 2 4 5 6 6 3 2 4 6 4 5 5 3 2 4 5 5 5 5 4 5 6 5 4 8 10 7 5 4 4 4 5 5 5 6 7 8 9 9 10 10 8 7 8 10 13 15 16 17 18 20 21 22 24 23 21 21 21 21 23 26 28 29 30 30 31 31 29 27 27 26 26 27 27 27 26 26 26 26 27 27 27
8 10 8 6 5 3 2 4 4 4 1 3 5 4 2 3 0 2 2 5 5 5 5 5 4 5 6 8 9 9 9 7 5 5 5 5 4 5 5 6 7 7 6 5 6 4 2 2 6 8 11 13 14 14 16 17 19 18 18 17 17 19 21 22 23 27 28 27 28 29 27 25 24 23 24 24 25 25 25 25 25 25 26 25 26 27 27
8 8 8 7 6 1 1 6 5 1 3 4 1 0 1 2 2 1 2 5 4 4 6 6 6 8 10 12 12 10 9 8 6 5 6 6 5 6 6 7 6 6 4 4 4 4 3 0 3 6 9 11 12 13 14 15 17 16 14 15 17 19 22 23 23 24 25 24 24 23 21 21 21 21 22 22 22 23 23 23 24 25 25 25 27 28 27
7 8 8 8 6 2 7 5 3 4 4 3 5 3 2 2 3 3 3 3 3 4 6 7 8 10 11 11 11 10 9 8 6 4 5 6 6 6 6 7 8 7 4 4 5 6 5 4 2 3 7 9 10 11 12 12 14 14 12 13 16 18 20 22 21 21 22 22 21 21 21 22 21 21 22 22 22 22 22 22 24 25 26 27 27 27 28
5 9 8 3 2 4 8 6 3 3 6 7 8 6 4 2 2 4 3 3 3 5 7 8 9 9 10 9 10 9 9 8 6 4 4 4 5 5 5 6 8 7 4 4 7 8 8 7 6 4 4 8 9 8 6 5 8 10 10 10 13 15 17 18 19 18 19 20 21 21 21 22 21 22 22 22 22 22 22 23 24 25 26 27 26 26 27
4 7 6 7 10 9 7 6 6 9 12 10 8 8 7 4 3 4 4 4 5 6 7 8 8 8 8 8 8 8 7 6 5 4 3 3 3 3 4 5 6 6 5 6 7 8 9 10 9 8 7 6 7 6 5 4 4 7 8 9 11 12 14 16 17 17 17 19 20 21 21 21 21 22 22 22 22 22 21 23 25 25 25 26 25 25 26
7 9 10 10 13 13 10 8 8 10 11 11 9 8 7 6 5 4 4 5 5 5 5 6 6 6 6 6 6 6 6 5 4 3 2 1 2 3 4 5 5 5 6 7 8 9 11 10 10 10 10 9 8 6 4 2 3 4 7 9 10 11 12 13 15 16 16 17 19 20 21 21 21 21 21 21 21 21 22 25 25 24 24 25 24 24 25
7 6 7 9 12 13 12 11 10 10 10 10 9 8 8 7 7 6 4 4 4 3 3 4 4 3 3 4 5 4 3 3 2 2 1 2 3 4 5 5 5 5 6 7 8 10 11 11 10 10 10 10 8 5 3 2 1 3 5 7 9 10 11 12 13 14 15 16 16 18 19 19 19 19 19 20 20 20 22 24 23 22 23 23 23 23 25
8 8 10 12 15 16 15 13 10 9 9 11 11 10 9 8 7 6 4 2 1 1 1 2 3 2 3 5 5 3 2 2 2 2 2 3 4 5 6 7 6 6 7 7 8 9 10 10 11 11 11 10 9 7 5 3 2 3 5 6 7 8 9 9 9 11 13 13 13 14 15 17 17 17 17 18 20 21 22 23 22 21 22 24 24 24 25
10 11 12 13 14 15 16 14 9 6 7 10 13 13 12 10 9 7 4 1 2 2 2 2 3 3 4 5 6 4 3 4 4 4 4 4 4 6 7 8 8 7 7 8 9 10 10 10 10 10 11 10 10 9 8 6 5 6 7 6 7 7 7 7 7 7 8 10 10 11 12 13 14 16 16 15 15 15 17 19 19 18 18 19 20 20 21
9 9 9 9 9 10 10 9 7 8 9 11 13 14 13 12 10 9 6 2 3 3 3 3 3 3 4 5 5 4 4 5 5 5 5 4 4 5 6 7 8 9 8 8 9 10 10 10 10 10 10 10 10 10 9 8 8 9 10 10 9 8 7 6 6 5 5 6 7 8 10 11 11 11 12 11 10 10 10 11 12 13 14 15 17 18 20
11 11 11 9 8 10 11 11 12 12 12 12 13 14 14 13 11 9 7 3 3 4 4 4 4 4 4 4 4 4 5 5 5 6 6 5 5 6 7 8 8 8 8 8 9 10 10 10 10 10 10 10 10 10 9 8 7 8 9 9 9 9 8 7 6 6 5 5 5 5 6 8 5 3 4 7 9 11 12 12 13 14 15 18 22 24 27
14 15 14 12 11 14 15 15 15 13 12 13 13 14 14 13 10 8 7 3 2 5 4 3 4 4 4 4 4 5 6 6 6 6 7 7 7 8 9 9 9 9 8 8 9 9 9 9 10 10 10 10 10 10 9 8 7 8 8 7 8 8 8 8 7 7 7 6 5 5 4 4 3 2 3 5 3 2 3 5 7 9 11 13 17 21 25
13 13 13 12 14 16 16 16 16 15 14 14 14 14 14 13 11 8 5 2 2 5 5 3 4 5 5 4 5 6 7 6 6 6 7 8 9 10 10 10 10 10 10 9 9 9 10 10 11 11 11 11 11 10 10 9 9 9 8 8 7 7 7 7 7 7 7 7 6 5 5 4 4 4 3 2 2 3 3 5 7 8 10 11 12 15 17
13 14 14 15 16 17 16 15 15 15 15 14 14 14 13 12 11 8 4 3 2 5 5 3 4 6 6 6 7 7 7 8 7 8 8 8 9 10 10 11 12 11 11 11 11 12 12 13 13 13 14 13 13 12 12 11 11 11 10 9 9 8 7 7 7 7 7 8 8 8 7 6 6 6 5 4 4 3 4 6 8 10 12 14 14 15 18
15 15 14 16 17 17 16 16 15 15 14 13 14 15 13 10 9 7 5 4 3 5 7 5 4 5 6 7 8 8 9 9 9 9 9 9 10 10 11 12 12 12 13 13 13 12 13 14 15 16 16 15 14 14 13 12 12 12 12 11 11 10 9 7 7 7 7 8 8 8 8 7 6 5 5 4 3 3 3 5 7 8 10 12 14 16 20
16 16 15 17 18 17 16 16 15 15 15 14 14 13 11 10 10 9 6 5 4 5 7 7 6 5 5 7 8 8 9 10 9 9 10 10 10 11 12 13 13 13 13 13 13 13 14 14 15 16 16 15 15 14 14 14 13 12 12 12 12 12 10 9 8 7 7 7 7 6 5 5 4 4 4 3 2 1 2 3 6 8 9 11 14 18 21
16 17 17 18 19 18 16 15 15 15 14 13 12 11 11 12 11 9 7 6 6 6 6 7 7 6 6 7 7 7 8 9 9 10 11 11 11 11 11 12 14 14 14 14 14 14 15 16 16 16 16 16 15 15 15 15 15 14 13 13 12 11 10 8 7 7 7 6 5 4 3 3 2 3 3 2 2 2 2 3 6 8 9 11 16 18 19
14 15 16 17 18 18 18 16 16 16 14 12 11 10 11 13 12 9 7 7 6 6 6 6 6 7 7 6 7 8 9 9 10 11 13 14 14 13 12 12 12 13 13 14 15 16 17 18 19 18 17 16 15 15 14 14 15 15 14 13 13 11 9 8 6 6 6 6 5 3 2 2 2 2 2 2 2 2 2 4 5 7 8 11 14 16 18
14 14 15 16 16 17 19 17 15 15 13 12 11 11 12 14 13 10 8 6 5 5 5 5 6 7 7 6 8 9 10 10 11 13 14 15 15 15 15 15 13 12 12 14 16 17 18 20 20 19 18 17 16 15 14 13 13 12 11 12 12 12 11 10 9 8 7 6 5 4 4 3 3 3 2 2 2 2 3 4 6 7 9 10 12 14 17
16 16 17 16 14 15 16 15 13 12 11 11 12 12 13 14 13 10 8 6 6 6 5 6 6 7 7 8 9 10 10 11 12 13 15 16 16 16 16 16 15 15 15 16 17 18 19 20 20 18 17 17 16 16 14 13 12 11 10 10 10 11 12 11 9 7 7 7 6 6 6 5 4 3 3 3 3 3 3 4 5 7 8 9 10 12 14
15 13 13 13 13 13 14 14 12 10 9 9 9 9 9 10 9 8 8 7 7 6 5 6 7 8 9 10 9 10 11 11 11 13 15 16 16 16 16 16 17 17 18 18 18 18 18 19 18 18 17 16 16 15 15 13 12 11 11 10 10 10 11 10 8 6 6 7 7 6 5 5 4 4 4 3 3 2 3 3 4 6 6 7 8 9 11
13 10 9 11 12 11 12 13 11 9 8 8 7 7 7 8 7 7 7 8 9 7 6 7 8 10 11 11 10 10 11 10 9 11 13 15 15 16 17 17 18 18 18 18 19 19 19 18 17 16 16 16 15 14 14 14 13 12 11 10 10 9 9 8 8 7 7 7 7 6 5 5 5 5 5 4 3 2 2 2 3 4 5 5 6 7 10
10 8 7 10 12 10 10 11 10 9 9 8 7 7 8 8 7 7 6 7 8 8 8 9 11 13 13 12 10 10 11 11 11 11 13 14 15 16 17 17 17 18 18 19 19 20 20 19 17 16 15 16 15 15 14 13 13 13 10 9 9 9 8 8 7 7 7 7 7 6 6 6 6 5 5 5 4 3 2 1 2 4 3 4 5 7 9
5 5 7 9 11 11 11 10 9 9 8 6 7 8 9 8 7 7 8 8 9 10 11 12 13 14 13 12 11 11 11 12 13 14 14 15 16 17 18 18 17 16 16 18 20 20 19 20 19 17 16 17 17 17 16 14 13 12 10 9 8 8 8 8 7 7 7 6 6 6 6 5 4 4 4 5 5 4 3 2 1 2 3 3 5 7 7
7 5 7 8 8 10 10 8 8 8 6 4 4 6 7 7 7 7 7 8 9 11 13 13 14 14 14 15 16 16 16 16 16 16 16 17 19 20 21 20 18 17 15 15 17 19 19 19 19 18 18 19 19 19 19 17 14 12 11 10 9 8 8 8 8 8 8 7 7 6 6 6 5 5 5 5 5 5 4 3 3 1 1 2 3 6 7
17 15 12 10 8 8 8 8 7 7 7 5 4 5 7 9 10 10 10 11 13 15 15 14 17 19 20 20 19 19 19 18 18 19 19 20 21 23 23 20 19 17 15 13 15 18 19 19 19 19 19 19 19 19 20 19 16 14 13 12 11 11 10 10 10 10 10 10 9 9 8 9 9 8 7 6 6 6 6 5 5 4 3 2 2 2 4
20 18 16 15 14 13 14 14 14 13 11 7 6 8 10 13 16 16 15 16 18 18 17 18 19 20 20 19 19 19 20 20 20 21 22 21 22 24 24 22 21 18 16 16 18 20 20 20 20 20 20 19 17 18 18 18 17 15 14 14 13 13 12 12 11 11 11 11 12 12 11 12 12 11 11 10 9 8 7 6 6 6 5 4 4 2 1
18 17 17 17 15 15 16 15 15 18 19 15 13 15 16 17 20 20 18 18 20 19 19 20 20 17 18 19 18 18 20 21 21 21 20 20 21 22 21 20 21 20 19 19 21 23 25 24 22 21 21 21 19 18 18 18 17 16 15 14 14 13 13 13 12 12 12 12 12 12 12 12 12 12 12 12 12 11 10 8 7 6 5 5 5 4 2
17 17 18 17 16 16 17 17 18 21 22 22 24 27 26 25 25 23 19 19 23 25 25 25 22 18 18 21 21 21 22 23 23 23 21 20 20 18 15 15 19 21 20 21 23 25 27 27 25 22 21 22 21 20 19 19 18 18 17 16 15 14 14 14 14 13 13 13 13 12 12 12 12 12 12 13 13 14 14 13 10 8 6 4 4 4 3
16 16 17 16 15 17 20 21 20 22 23 25 30 33 31 30 30 28 24 25 28 28 27 28 26 22 20 21 22 23 23 24 25 25 24 23 20 16 12 14 19 22 22 23 25 25 26 27 27 26 23 22 22 22 22 21 20 19 19 18 17 17 16 15 14 14 13 13 13 13 14 14 14 14 14 14 14 14 14 14 13 11 9 7 5 4 3
17 16 14 13 13 16 19 20 19 18 19 23 28 31 29 29 30 29 27 28 29 27 26 28 29 27 24 23 21 20 20 21 22 23 23 24 25 22 18 17 20 24 25 25 26 26 26 26 26 26 26 24 23 23 23 22 21 21 20 20 19 19 18 17 16 15 14 14 14 14 14 15 15 15 15 15 15 15 15 14 14 13 11 9 8 6 4
19 18 16 15 16 16 17 18 17 15 14 18 24 27 27 26 26 26 25 25 26 25 24 25 26 26 25 24 20 17 16 17 18 19 18 19 21 24 23 21 21 24 26 26 26 26 26 26 25 25 26 25 24 23 23 22 22 21 21 21 20 20 19 19 18 17 16 16 15 15 16 16 17 17 17 16 15 16 16 15 15 14 12 11 9 7 6
20 21 21 21 20 19 17 16 15 14 15 19 23 24 22 21 23 24 23 23 23 23 23 23 22 22 22 21 19 18 18 19 20 20 17 14 14 18 22 23 23 23 24 25 24 24 25 26 27 27 26 25 24 23 23 22 22 21 21 21 21 20 20 20 19 18 18 18 17 17 17 17 17 18 18 17 17 18 17 16 17 17 15 14 12 10 8
20 21 22 22 20 18 17 16 16 17 19 20 20 19 18 19 21 22 22 21 21 22 22 22 21 19 18 18 18 18 19 21 22 22 20 17 15 16 19 21 23 24 24 24 23 23 23 25 27 28 26 25 23 23 22 21 22 22 22 21 21 20 19 19 19 19 19 19 19 19 18 17 17 17 17 17 17 18 18 17 18 19 19 19 18 16 14
19 20 21 21 19 18 18 18 18 19 18 16 13 13 15 17 18 19 19 19 20 21 21 21 21 20 20 19 18 17 16 17 18 19 19 18 17 17 18 18 19 20 21 23 24 24 25 26 27 27 26 25 24 23 22 22 22 22 22 21 21 20 20 19 19 19 19 19 19 19 19 19 18 18 17 17 17 18 19 19 19 18 19 22 24 23 22
18 18 18 19 19 19 19 19 19 17 15 13 13 13 14 15 17 17 17 18 19 20 20 20 20 20 21 21 20 19 17 15 14 14 16 17 16 16 18 18 18 17 17 18 21 24 26 27 27 26 25 24 23 22 22 22 22 21 21 21 21 21 21 20 20 19 19 19 19 19 19 20 19 19 19 19 18 18 19 20 20 20 19 21 23 25 26
18 18 18 19 19 19 18 17 15 13 13 13 14 13 12 13 15 16 15 15 17 18 18 18 18 18 19 19 20 19 19 18 16 15 15 16 16 16 17 18 19 18 17 16 17 20 23 24 24 24 23 23 22 22 22 21 21 21 20 20 20 20 20 21 21 20 19 19 19 19 19 19 19 19 19 19 19 19 19 19 21 22 22 21 23 26 29
18 18 17 18 18 18 17 15 13 12 13 13 13 12 11 12 13 13 13 13 14 15 16 17 17 17 17 18 18 18 18 18 18 16 16 16 17 17 16 17 18 18 17 16 16 17 19 21 22 21 21 21 21 21 21 20 20 19 19 19 19 19 19 19 20 21 20 20 20 20 19 19 19 19 19 19 20 20 20 19 19 21 22 22 23 26 29
16 16 15 15 15 16 17 16 15 14 14 13 13 12 13 13 13 14 14 14 13 14 14 15 15 15 16 16 17 17 17 17 17 16 16 16 16 16 16 16 16 16 16 16 15 15 16 18 20 20 19 19 19 19 20 19 18 18 18 18 18 18 19 18 18 19 19 19 20 20 20 20 19 19 20 20 20 20 20 20 20 20 21 21 21 22 25
15 15 14 13 13 14 15 16 16 15 15 15 15 14 14 13 14 15 15 15 14 13 13 14 15 15 15 15 15 15 16 16 16 16 16 15 15 15 15 15 15 15 15 14 14 15 15 16 17 19 19 18 17 17 17 17 17 17 17 17 16 17 18 18 17 16 16 17 17 19 20 20 20 20 20 20 20 20 20 20 20 20 20 20 20 20 21
Wind_Direction
281 298 333 3 329 235 211 209 207 207 209 211 216 224 224 220 228 238 216 213 225 228 223 229 237 247 255 259 271 279 285 296 301 320 326 302 240 185 180 190 196 204 207 208 210 211 209 209 209 208 208 207 206 206 205 203 203 201 198 196 197 198 199 200 201 200 200 201 202 202 202 203 205 207 209 209 209 209 209 209 210 211 211 210 208 207 207
237 226 241 262 234 222 224 225 217 213 216 219 224 229 231 233 236 241 239 236 235 235 243 254 257 254 258 263 271 279 282 287 294 301 304 295 269 228 206 198 197 205 210 207 208 209 209 211 211 210 209 208 206 206 205 202 202 202 199 198 198 198 200 202 200 197 196 198 198 199 200 201 202 205 207 208 208 208 208 208 209 210 210 210 209 208 207
214 208 206 204 224 237 237 236 230 226 226 225 226 229 233 238 241 241 244 249 247 240 246 261 265 265 269 269 272 277 281 287 290 287 284 280 268 267 268 230 192 192 205 207 206 207 207 208 209 210 210 209 208 208 206 204 203 201 198 198 198 199 201 201 197 193 193 195 195 196 198 200 200 202 205 206 207 207 207 208 209 209 209 209 210 210 208
203 185 195 209 231 252 247 238 230 226 225 225 224 223 225 230 235 240 244 246 245 245 249 255 259 264 269 268 270 273 276 279 282 280 276 269 260 268 285 285 228 194 205 208 208 212 212 208 208 209 209 208 208 209 208 206 203 200 199 200 200 201 201 198 192 191 191 192 193 194 196 198 199 200 202 205 206 205 206 207 207 208 209 209 210 211 211
191 157 186 227 241 245 245 235 224 222 221 223 225 223 224 225 227 234 241 243 246 249 249 249 249 253 257 259 261 265 267 271 275 276 275 273 274 282 293 296 278 243 235 223 214 217 218 213 212 211 209 208 210 210 209 206 203 201 201 202 201 200 199 194 191 190 190 190 192 194 195 196 198 198 200 204 206 206 206 207 207 208 208 209 210 211 212
206 154 170 246 229 228 233 214 212 217 217 220 224 224 223 220 221 234 246 252 256 251 246 250 256 258 261 264 264 264 264 266 270 273 276 282 288 291 292 291 286 270 248 238 232 230 228 223 219 215 212 212 212 209 206 203 202 202 203 202 200 198 196 194 192 190 191 193 194 194 194 193 196 199 202 205 207 208 208 208 209 209 209 210 211 212 213
246 245 220 222 220 215 134 78 96 199 213 221 230 236 236 231 230 238 246 248 250 251 252 260 266 270 273 275 274 272 272 274 274 274 276 279 281 283 284 283 281 268 242 245 249 244 240 235 227 220 217 215 212 208 204 202 201 201 201 201 201 198 195 195 194 192 194 196 194 194 194 193 196 201 204 206 208 209 211 211 211 212 212 211 211 212 215
251 252 221 212 204 56 109 135 111 137 174 189 221 236 237 239 243 247 252 255 256 259 264 266 269 278 286 285 280 275 274 271 265 266 269 270 272 276 281 284 285 278 264 263 264 258 250 242 232 225 220 215 211 208 204 202 201 200 199 199 201 200 197 195 194 194 194 194 193 194 194 194 198 203 205 208 208 209 211 213 214 215 215 215 215 215 218
237 240 233 230 270 299 227 170 112 112 143 141 234 243 222 197 172 276 262 264 268 271 276 277 285 301 303 286 271 266 263 256 249 254 263 268 273 278 283 289 291 284 274 269 266 259 247 241 237 229 220 213 210 208 204 202 201 199 198 198 200 201 199 197 195 193 192 192 192 194 194 196 201 205 207 209 209 207 209 212 213 214 215 217 218 218 218
229 241 245 239 249 255 221 148 111 96 83 67 9 271 201 123 93 55 250 258 271 277 286 297 304 306 284 266 262 271 268 254 241 246 255 262 274 284 290 293 290 284 278 269 262 256 248 243 239 229 219 210 207 207 204 202 200 198 199 200 199 200 199 197 194 190 189 190 191 192 195 198 202 205 206 208 207 206 208 211 213 214 214 215 217 217 217
225 232 238 231 236 236 128 122 119 112 101 100 142 236 220 132 92 46 280 285 292 292 307 315 306 274 254 249 264 341 337 325 298 285 279 279 290 297 298 300 300 297 293 282 268 255 246 241 233 222 214 209 207 206 204 202 200 201 204 204 201 199 198 194 188 185 187 191 193 194 197 201 204 205 205 205 205 205 209 212 215 216 216 217 219 219 220
225 232 237 233 241 232 111 121 120 103 96 164 200 225 206 117 80 26 316 302 308 309 313 309 276 244 247 263 330 2 354 346 345 333 314 310 314 310 308 319 323 312 299 285 269 252 238 233 227 214 206 206 207 204 201 202 205 206 208 207 202 198 194 189 186 188 192 195 196 199 201 203 204 204 203 203 204 204 208 213 216 218 218 220 222 222 221
223 231 236 238 247 245 189 185 149 89 64 220 220 227 140 111 56 335 309 301 311 311 300 294 269 261 283 304 319 332 329 321 327 334 321 314 317 324 337 348 342 321 306 298 289 286 285 242 226 211 201 203 204 199 196 203 210 210 207 204 198 193 190 189 191 195 199 200 201 203 204 202 202 204 204 205 206 206 210 213 215 218 219 221 226 227 224
220 223 232 242 240 234 276 244 225 236 266 240 223 30 141 194 263 276 271 283 304 305 287 283 280 286 294 297 299 310 318 317 320 327 327 328 335 345 355 359 352 338 331 332 328 339 9 307 218 205 198 198 198 196 196 203 210 210 204 197 192 188 189 192 196 198 200 201 202 204 205 202 202 204 207 209 210 211 214 216 218 221 223 225 230 233 233
224 224 223 227 219 67 21 329 236 217 258 312 6 345 226 218 291 293 281 292 318 309 291 286 287 289 290 292 298 304 303 302 306 320 335 338 338 345 356 0 358 354 354 0 359 2 13 23 52 172 188 191 193 196 197 199 203 203 200 196 192 189 192 195 197 198 198 199 200 203 205 204 204 206 210 212 214 214 216 221 226 229 229 229 231 234 236
221 218 207 215 303 4 4 345 308 307 317 338 354 332 303 313 319 302 302 315 321 310 297 292 293 293 290 292 299 298 291 291 293 301 327 332 324 335 355 359 357 359 13 24 18 16 18 22 34 62 146 172 174 172 163 162 180 186 188 192 192 193 195 196 196 196 197 199 202 205 206 205 204 209 211 212 214 214 215 220 227 231 231 230 230 232 235
282 256 262 319 322 313 324 335 338 337 331 332 339 329 316 318 331 326 314 309 312 308 296 288 286 288 291 291 290 289 288 291 289 288 312 332 319 334 5 12 12 21 36 36 30 30 29 28 33 44 69 113 121 101 83 100 154 175 182 187 191 196 198 196 196 196 197 201 204 204 204 203 204 207 209 210 212 213 214 220 225 229 232 231 230 231 235
302 287 278 285 287 288 305 325 330 330 327 328 334 332 322 322 327 320 308 307 309 304 298 294 288 285 290 289 283 282 284 283 280 280 295 342 5 10 17 20 26 41 52 47 42 39 37 36 40 46 56 73 78 66 57 86 148 175 188 190 192 197 198 196 197 198 199 202 205 205 205 206 207 208 210 211 212 212 216 222 225 228 232 234 232 232 235
288 279 273 278 283 290 303 312 315 317 315 319 328 329 326 325 316 304 305 313 307 302 323 332 319 306 316 313 297 288 285 282 286 298 323 24 40 37 29 27 36 55 62 56 49 46 45 45 48 53 59 65 67 67 65 73 143 172 184 190 192 195 198 199 200 201 203 205 207 207 207 209 211 213 213 215 216 216 219 224 225 227 232 234 234 234 237
262 264 277 287 289 292 292 289 293 304 306 311 321 320 315 313 305 293 296 319 319 295 2 358 342 353 12 349 327 318 337 355 3 12 16 30 43 48 45 39 43 60 68 66 63 61 57 54 53 56 60 60 60 64 66 65 96 134 157 175 182 183 188 194 198 201 205 208 210 210 209 211 216 219 219 221 224 226 228 230 230 230 232 233 235 239 242
265 263 268 273 274 275 272 267 272 302 314 314 317 314 308 306 299 283 266 164 68 50 82 56 14 26 35 0 337 344 19 21 24 29 26 28 37 43 46 45 46 55 66 72 74 71 65 61 60 59 60 60 61 63 67 75 81 83 96 122 139 149 163 175 180 185 194 200 206 212 214 215 220 225 228 232 236 236 235 235 237 241 245 247 247 250 253
262 257 258 266 271 270 267 271 297 324 324 314 314 314 310 306 301 292 273 205 114 73 70 74 53 44 37 6 352 16 30 19 25 34 30 33 46 52 59 61 57 56 61 71 76 74 69 67 67 66 64 61 59 58 61 74 88 89 91 98 108 120 134 149 158 158 167 185 199 212 219 220 221 225 229 237 253 265 259 248 246 253 262 267 269 274 279
262 267 271 279 286 284 284 290 300 306 308 304 305 307 305 301 298 295 285 246 134 95 71 72 75 67 51 24 19 41 44 35 41 48 46 49 56 60 66 72 70 66 64 65 69 70 70 72 73 70 65 59 54 51 51 60 80 95 102 106 108 112 114 117 127 134 138 153 170 189 213 224 228 233 236 241 259 276 279 274 271 273 276 278 277 278 280
268 272 274 279 279 276 279 285 289 293 297 295 293 295 296 293 288 283 281 271 126 104 94 95 95 86 70 54 47 52 54 51 51 60 65 65 64 66 69 73 77 75 69 65 67 70 74 77 78 75 67 58 50 46 48 56 68 80 92 102 106 108 110 111 115 120 123 129 140 149 167 187 182 185 232 236 240 284 297 294 295 295 296 294 287 280 278
263 269 273 276 274 272 276 280 280 279 278 278 280 284 285 281 275 269 263 250 115 94 91 104 108 94 80 67 63 65 69 65 58 63 71 71 69 70 72 73 75 77 78 79 80 81 82 82 81 77 69 62 56 53 55 61 68 74 80 88 97 102 105 104 103 107 113 119 127 133 136 141 146 154 173 172 100 71 40 14 359 350 344 336 322 308 300
257 265 269 271 269 266 267 269 268 267 265 265 266 269 266 263 263 256 219 184 143 100 92 78 71 77 77 71 66 67 73 75 67 63 66 69 68 68 70 72 73 74 77 79 79 80 81 81 79 75 69 64 61 60 61 64 69 74 77 81 87 89 88 91 92 92 99 107 110 111 113 113 114 114 104 82 65 45 14 358 353 349 344 338 331 324 320
264 263 263 265 264 260 256 256 258 261 262 261 261 259 249 236 237 234 197 160 131 106 101 89 71 71 77 76 72 69 69 70 66 61 59 60 64 67 70 75 76 75 75 75 74 73 74 73 72 69 66 64 62 63 65 69 72 75 78 82 86 85 81 84 88 85 88 97 100 100 102 101 101 103 100 90 74 47 16 358 345 334 328 326 323 319 321
263 258 253 253 255 256 255 255 257 258 257 255 256 253 237 218 220 219 191 156 134 112 99 92 86 77 70 72 74 72 68 64 63 63 60 56 60 69 75 79 81 80 79 78 74 72 71 68 65 62 61 63 65 66 68 71 73 76 79 81 86 89 86 83 83 82 81 87 90 91 94 98 101 101 96 94 84 42 7 355 344 328 319 323 323 320 322
251 252 250 247 247 250 253 255 256 256 253 246 241 236 223 215 217 215 192 164 146 124 106 97 89 76 67 69 71 71 69 64 61 64 63 57 55 60 69 78 80 78 77 75 72 70 70 67 62 58 54 56 61 65 68 70 70 70 69 67 71 80 84 80 82 89 88 77 70 77 86 88 97 102 97 92 65 21 8 2 349 334 328 331 330 327 329
251 256 252 246 243 242 243 244 246 247 241 227 221 223 219 216 218 214 192 169 149 128 120 116 102 84 72 67 68 73 76 74 69 67 65 60 54 49 52 64 72 71 68 65 63 63 63 61 59 54 48 47 53 60 65 68 69 70 72 70 68 70 67 56 56 73 80 68 56 57 65 62 68 80 81 80 67 29 8 358 350 342 342 344 340 338 339
267 263 254 249 244 237 233 231 232 232 224 208 205 213 216 217 217 209 186 159 131 113 111 116 111 98 85 78 78 79 80 79 77 74 69 63 57 52 52 56 60 59 58 58 57 58 59 58 56 53 48 46 50 55 61 67 70 72 76 78 74 67 58 50 49 51 50 45 37 28 22 26 38 48 50 52 49 33 16 12 11 7 2 358 355 351 347
259 255 249 245 237 227 221 217 213 206 195 191 199 208 214 215 210 197 174 143 121 118 117 112 109 102 96 95 93 89 87 82 78 77 75 69 63 58 57 57 56 55 56 55 54 56 58 58 57 56 53 51 50 52 57 62 64 63 65 67 66 61 54 49 50 51 46 38 31 25 17 11 14 27 37 35 26 26 28 22 22 24 19 11 5 360 353
233 235 232 220 209 206 203 198 190 175 168 181 198 207 211 212 200 181 160 140 133 140 137 121 114 108 103 100 95 91 90 84 73 71 72 68 62 59 59 58 55 53 52 51 51 54 56 56 55 55 54 53 52 51 52 55 57 58 57 56 57 58 53 43 37 44 52 45 35 27 19 11 10 16 24 23 10 17 32 27 24 30 30 23 15 3 355
214 217 206 185 181 184 185 182 172 157 163 184 194 196 203 203 186 166 152 141 138 141 140 135 130 118 105 95 83 79 83 82 74 69 65 60 59 62 63 62 59 55 50 47 48 50 52 53 53 54 53 51 51 52 51 51 54 55 54 55 54 54 53 46 39 44 51 45 35 27 21 21 23 20 17 17 13 8 18 24 27 33 31 22 11 354 350
204 210 190 170 167 167 168 166 162 162 173 182 181 183 192 186 168 154 144 134 132 136 142 141 129 113 101 91 80 76 78 77 70 64 58 54 57 62 63 59 56 52 48 46 46 48 49 49 50 54 54 52 51 51 50 50 54 53 52 57 58 51 47 48 45 43 39 32 29 28 23 20 24 22 13 9 8 3 357 9 35 44 38 15 358 344 347
183 175 159 157 160 160 158 157 159 163 169 171 174 179 179 170 161 155 148 142 140 140 136 125 111 100 97 95 90 84 81 76 68 60 54 52 52 54 54 49 42 40 43 43 41 43 47 46 45 49 55 53 50 48 44 46 53 54 49 49 53 49 45 44 42 39 36 28 23 22 14 4 7 13 6 0 2 0 350 336 12 49 50 17 358 350 349
47 84 115 128 139 146 148 150 155 157 152 152 167 167 158 151 142 129 124 131 133 126 118 108 99 95 96 95 91 85 80 75 69 62 57 56 55 55 54 48 41 39 41 36 30 32 40 44 44 48 53 52 49 46 42 42 48 53 48 45 44 40 39 39 34 31 29 22 12 7 358 350 351 354 350 351 357 357 348 334 326 356 47 18 356 357 0
40 45 54 60 70 90 97 97 107 117 116 116 112 105 116 127 118 94 79 83 95 101 101 99 98 99 96 90 85 79 75 73 72 70 66 63 62 61 58 51 45 43 40 32 25 26 33 39 43 47 49 48 49 48 45 43 48 53 52 49 46 41 37 37 34 31 27 21 15 11 6 1 356 351 348 354 359 358 355 347 330 317 311 299 293 323 350
42 43 47 47 47 54 60 61 62 61 58 63 78 78 85 102 103 90 75 74 85 96 100 96 92 92 90 85 79 75 72 73 76 76 72 69 68 67 63 55 49 45 41 38 36 34 34 38 42 43 41 41 45 47 43 43 50 56 55 52 51 47 41 38 35 32 30 26 22 19 17 13 7 1 358 358 357 355 356 355 338 318 309 303 293 290 308
43 44 49 51 51 55 57 58 58 52 44 44 60 67 66 77 86 82 71 67 72 77 81 83 82 81 81 80 78 73 70 68 69 70 69 67 67 68 64 54 46 41 41 43 43 40 39 41 42 41 38 37 38 41 40 40 46 51 50 48 48 46 44 42 39 36 34 31 27 26 24 22 21 18 13 9 4 357 355 355 348 329 313 307 312 321 332
39 42 48 51 52 55 54 53 58 58 50 46 55 59 57 60 68 69 63 63 67 65 65 69 73 73 75 76 74 69 65 61 59 60 62 61 61 63 60 48 39 38 41 46 47 45 43 42 40 38 38 37 36 38 41 43 45 46 45 42 41 41 40 39 38 38 36 32 31 29 26 23 24 25 24 22 18 10 2 358 357 353 344 332 328 331 334
32 36 43 46 47 52 53 52 54 57 51 46 51 55 53 55 62 64 61 60 62 61 60 61 63 62 63 67 68 66 63 60 57 57 58 57 56 57 57 48 41 39 43 48 48 46 44 41 37 36 36 37 37 40 44 45 44 43 42 40 38 37 36 34 33 34 33 31 31 31 28 26 26 25 24 25 25 20 12 6 3 3 3 357 350 347 341
36 36 40 41 43 54 60 59 57 56 50 46 51 55 55 55 61 65 64 62 61 60 58 59 59 57 55 55 57 57 56 55 56 56 57 55 54 52 53 50 45 42 44 48 48 45 43 40 36 35 37 38 40 43 46 46 44 42 41 40 38 36 35 33 30 29 28 28 30 31 30 28 28 26 25 25 23 20 18 13 8 5 2 357 356 358 352
37 41 45 47 46 51 58 59 58 58 54 51 53 57 58 58 60 63 65 66 64 62 60 60 60 58 55 53 51 48 45 46 50 53 55 55 51 46 45 46 45 44 45 47 47 45 41 37 34 35 38 41 44 45 47 46 44 41 40 39 38 36 35 33 31 29 28 27 28 31 32 33 33 31 29 28 25 21 19 17 14 11 6 2 3 3 354
34 39 44 46 45 45 48 51 54 60 63 61 58 57 58 61 64 65 65 65 65 64 63 62 60 58 57 58 59 57 54 52 51 51 53 56 50 43 41 44 45 45 45 46 46 44 40 36 36 38 39 41 44 47 47 46 44 42 40 39 38 36 35 33 31 30 28 28 29 30 32 34 36 36 34 33 33 29 24 21 21 22 21 18 16 16 17
33 35 39 41 42 43 46 49 54 58 60 61 58 51 48 54 62 64 63 63 64 64 63 60 55 52 55 60 64 65 63 61 58 56 57 61 59 51 47 48 49 49 48 47 46 42 37 35 37 40 40 41 43 45 45 44 43 41 39 37 36 35 33 31 30 29 28 28 29 30 31 32 34 36 37 37 38 35 31 27 27 28 30 32 35 36 38
34 35 37 40 43 45 46 50 54 54 54 57 60 53 46 51 59 62 62 64 66 66 64 60 56 52 51 53 57 60 62 62 58 54 55 59 60 54 49 48 50 51 52 51 47 43 39 38 38 39 40 42 43 44 43 42 42 40 38 36 35 33 31 29 28 28 28 28 28 30 31 32 32 33 34 36 39 38 34 32 31 30 30 35 41 44 45
33 35 37 40 43 44 46 51 54 54 53 59 66 62 58 61 66 65 64 67 70 69 67 66 62 57 54 54 55 56 58 62 60 52 49 53 56 52 48 45 45 46 50 50 47 42 41 41 40 39 40 41 43 43 42 41 40 39 38 37 35 33 31 29 26 26 27 27 28 29 31 31 31 30 31 32 35 37 36 34 33 31 30 33 38 42 45
30 31 33 35 37 39 42 48 53 54 55 60 63 61 61 67 70 67 65 68 71 71 69 67 64 60 58 59 59 57 57 61 64 60 54 53 53 50 47 44 42 41 42 44 43 39 38 38 38 38 39 41 42 42 41 41 40 39 38 37 36 35 33 31 28 27 27 28 29 30 30 31 30 30 31 31 32 34 35 36 36 35 35 35 37 40 44
28 30 32 33 33 36 40 44 48 51 53 54 54 53 55 60 63 60 60 67 74 75 72 68 65 62 60 60 60 58 58 60 62 61 58 56 54 51 47 45 43 41 40 40 40 38 36 35 35 35 38 41 42 40 39 39 39 38 37 37 37 35 34 32 32 31 30 30 30 30 31 31 30 30 31 32 32 32 33 36 37 36 36 37 37 38 42
31 32 35 36 37 38 40 42 45 46 46 45 45 48 53 58 59 55 53 58 67 73 72 68 65 63 62 62 61 59 57 57 57 57 56 54 53 50 47 45 43 41 40 39 38 37 36 37 36 34 35 38 40 40 39 38 38 37 36 36 36 35 33 31 31 32 32 33 33 33 32 31 31 31 31 32 32 33 33 34 35 35 36 38 38 38 39
39 36 35 38 41 42 42 42 42 42 41 41 42 44 48 53 56 54 49 49 54 62 67 66 62 58 57 59 60 59 58 56 56 54 53 51 49 47 44 42 40 38 36 36 36 35 36 36 36 36 35 35 36 36 35 35 35 35 33 32 33 35 33 31 29 29 31 33 36 37 36 35 34 34 33 32 32 32 34 34 34 35 37 38 39 40 40
Height
692 687 685 683 681 679 675 673 671 670 669 671 675 679 675 677 691 697 685 684 693 686 674 672 670 668 668 665 661 657 656 658 658 660 662 662 661 661 662 664 664 664 665 665 665 666 666 668 670 671 673 676 677 680 683 686 689 692 695 699 701 705 708 710 712 716 720 724 727 731 734 737 740 742 744 747 750 753 755 757 759 761 764 767 769 771 774
693 689 687 685 685 686 685 681 677 676 674 673 675 677 673 674 681 682 680 685 687 678 671 668 663 661 662 661 658 657 657 657 657 659 662 661 658 658 659 660 660 660 661 661 662 663 664 665 666 668 670 672 673 676 678 681 685 687 691 695 697 700 703 705 708 712 716 720 723 726 729 731 734 737 740 743 746 748 750 753 755 757 760 763 765 767 769
696 690 687 688 688 689 690 686 681 680 680 679 680 680 678 679 682 679 679 687 685 672 665 664 661 660 661 663 664 663 660 659 658 659 660 659 658 656 655 656 656 656 657 658 659 660 660 661 663 665 666 668 670 672 675 678 680 683 687 691 693 696 698 701 705 709 712 715 718 721 724 727 729 732 736 739 741 744 746 749 751 753 756 758 760 762 764
699 690 690 691 688 690 692 689 684 682 683 682 681 680 679 682 685 685 686 690 686 671 664 665 665 664 666 668 667 666 663 660 658 659 658 657 657 654 652 652 652 653 655 656 657 657 656 656 659 660 662 664 667 668 670 673 676 681 684 686 689 692 694 698 702 704 707 711 714 717 720 723 726 729 732 735 738 740 742 745 747 749 751 754 755 757 759
698 690 694 692 693 702 699 685 677 678 679 678 677 676 675 674 678 684 685 682 675 667 665 667 668 667 667 666 664 664 663 660 658 657 655 653 652 649 648 648 649 650 651 651 652 652 651 652 654 656 658 660 661 663 666 671 675 678 680 682 686 689 692 696 698 700 704 707 709 713 715 719 723 726 729 731 733 736 738 741 743 745 747 749 751 753 754
703 695 696 698 704 709 693 670 663 667 670 673 675 674 670 668 668 670 671 668 665 663 665 667 669 666 663 660 658 657 657 658 658 656 653 651 649 648 647 646 646 647 647 648 648 648 648 649 650 652 654 655 657 660 665 669 671 674 676 679 683 686 690 693 695 698 701 703 706 709 712 716 720 722 725 727 730 733 735 737 739 741 743 745 747 748 750
708 698 702 713 713 699 678 665 664 665 665 668 671 672 668 665 665 665 666 666 664 663 663 663 663 662 658 655 654 653 651 653 656 656 654 652 650 649 648 646 646 646 646 647 646 646 647 647 647 649 650 651 655 658 661 663 666 668 672 675 679 682 685 688 690 693 695 698 702 706 709 713 716 718 721 723 726 729 731 733 734 736 739 740 741 743 745
711 706 709 712 701 683 672 670 669 668 669 672 676 678 672 666 666 668 669 667 663 662 662 660 658 657 656 655 655 652 650 649 651 653 652 649 648 647 646 646 646 645 645 645 645 645 646 646 645 646 647 649 652 654 656 659 662 664 668 671 674 677 679 680 683 686 689 693 697 701 705 708 711 714 716 717 720 723 726 728 730 731 734 735 736 738 741
710 710 705 695 689 686 680 676 673 671 672 674 678 680 674 667 669 672 673 672 668 664 663 662 659 658 661 664 659 650 645 645 645 646 645 644 645 644 644 644 644 645 645 645 644 644 644 644 643 643 644 646 648 650 653 655 658 661 664 667 669 671 672 674 676 680 684 688 691 695 699 702 704 707 709 711 714 717 720 722 724 725 727 729 731 733 734
707 710 707 700 701 699 684 675 674 672 672 672 674 679 677 672 672 674 673 673 672 669 668 667 665 666 671 672 662 648 640 638 639 642 642 642 643 644 644 644 643 643 644 643 643 643 642 641 641 641 642 643 645 647 649 651 655 658 659 661 663 665 667 670 673 677 681 684 687 690 693 695 697 699 702 705 709 712 714 716 718 720 722 724 725 726 727
708 711 712 708 704 693 678 674 674 672 671 671 674 684 684 675 672 673 673 674 673 672 673 672 670 674 677 671 659 649 644 641 642 645 645 644 644 643 643 644 643 643 643 643 642 641 639 639 639 639 640 641 642 644 646 648 652 654 654 655 658 661 664 668 671 674 677 680 683 685 687 689 691 694 697 701 704 707 710 712 714 717 719 720 721 721 723
711 711 709 702 694 683 675 675 675 671 669 671 684 697 690 675 673 674 674 675 674 672 674 674 674 675 673 665 657 653 651 648 648 649 649 648 647 644 643 643 644 643 643 643 641 638 637 637 637 637 638 639 640 642 644 646 648 649 651 654 657 660 664 666 669 671 673 676 678 679 682 684 687 691 694 697 699 702 704 707 710 713 714 716 717 718 719
712 713 710 701 690 677 672 673 671 670 672 678 691 697 684 674 675 674 672 674 673 672 674 675 674 670 664 659 656 654 653 653 651 650 649 648 647 645 644 644 645 643 642 642 641 638 637 637 636 636 637 638 639 641 643 644 645 647 651 654 656 659 661 663 666 667 670 672 674 677 680 683 686 689 691 694 696 698 700 703 706 708 710 712 713 714 715
710 708 708 706 695 677 670 670 668 670 680 687 687 682 676 674 674 672 672 673 672 672 674 673 672 668 662 658 657 656 656 656 654 652 651 649 648 647 646 646 645 643 642 642 642 640 639 638 637 636 636 637 639 641 642 643 644 647 649 652 654 656 658 660 663 665 667 670 673 676 680 682 685 687 690 692 695 696 699 701 702 704 707 709 710 711 711
711 709 709 713 705 685 675 677 675 675 682 683 677 673 673 672 671 670 672 671 671 673 673 671 670 668 664 661 659 659 660 658 655 654 653 652 651 650 648 647 645 643 643 643 643 642 641 639 638 636 636 637 639 640 641 642 644 646 648 650 652 654 656 658 660 662 665 668 671 674 677 679 682 685 687 690 692 694 696 698 700 702 703 704 705 706 707
712 711 704 703 700 689 684 685 685 684 682 677 675 675 673 670 670 671 671 671 671 673 673 672 670 668 665 664 662 662 662 659 657 656 654 654 653 651 650 650 648 645 644 643 644 645 644 642 640 638 637 638 639 640 641 642 644 645 647 649 651 653 655 656 659 661 663 666 668 671 673 676 678 681 683 686 688 690 693 695 696 697 698 700 701 701 701
715 709 699 695 694 690 687 687 687 687 684 678 677 678 675 673 673 673 673 673 672 672 673 673 670 668 666 666 665 665 663 661 660 658 656 655 654 651 652 653 651 647 646 646 646 646 645 644 643 640 639 639 640 641 643 644 644 645 647 648 650 652 653 655 657 659 661 664 666 668 670 673 675 677 679 682 684 686 688 690 692 692 693 694 696 696 697
716 709 700 697 696 690 686 687 688 688 687 683 681 681 679 677 676 675 675 675 673 674 675 673 670 669 668 667 667 666 664 663 662 660 658 656 653 652 653 654 652 649 648 648 648 648 647 646 645 643 642 642 642 644 644 645 645 645 646 647 649 650 652 654 656 658 659 661 663 665 668 670 671 673 676 678 680 682 684 686 687 688 689 690 691 692 693
721 714 702 697 696 693 690 691 690 688 688 687 685 685 683 680 678 676 675 675 675 676 675 674 673 672 670 669 669 666 664 663 662 660 660 657 655 654 654 654 653 650 649 649 649 649 649 648 647 646 645 645 645 645 645 646 646 646 646 647 648 650 651 653 655 656 658 660 661 663 665 667 669 671 673 675 676 678 680 682 682 683 685 687 687 687 687
720 715 706 701 701 697 693 692 691 690 690 689 688 687 685 682 680 678 676 675 676 676 676 675 674 673 672 672 671 667 666 664 662 661 661 659 656 655 655 655 654 652 650 651 650 650 650 649 650 650 649 648 648 648 647 647 646 646 646 647 648 649 651 652 654 655 657 659 660 662 664 666 668 669 671 673 674 674 676 678 679 679 681 682 683 683 683
716 710 705 703 701 696 690 689 690 691 692 692 690 689 687 683 681 679 676 675 674 674 675 675 674 674 675 674 672 669 668 666 664 663 662 661 659 658 657 656 655 653 653 652 652 651 652 652 652 652 652 652 651 650 650 649 648 647 648 647 648 650 651 653 654 656 657 659 660 662 663 665 667 668 669 670 671 672 674 676 676 676 677 678 679 680 680
714 706 701 701 702 698 691 689 692 694 694 693 691 690 688 685 683 681 678 674 673 673 673 673 674 676 676 674 673 671 669 668 667 665 664 663 661 660 659 658 657 656 655 654 653 653 654 654 654 654 654 654 654 653 653 652 651 650 650 650 651 652 653 654 656 657 658 659 661 662 663 664 665 667 668 669 670 672 673 674 675 676 677 678 679 679 679
708 702 699 700 704 703 697 694 696 696 694 693 692 691 690 686 683 682 680 677 674 673 673 673 674 675 675 674 672 670 669 669 667 665 665 664 662 661 660 659 658 658 658 657 656 656 655 656 656 656 656 656 656 655 655 654 653 652 652 652 653 654 655 657 657 658 659 661 662 664 664 665 665 667 669 670 671 672 673 674 675 676 677 678 678 679 678
706 703 702 703 706 704 698 696 697 696 694 694 692 690 688 685 683 683 682 679 675 673 674 675 674 673 673 672 670 669 670 668 666 665 665 664 663 663 662 660 660 660 660 660 660 659 658 658 657 657 658 658 658 658 657 656 655 654 653 654 654 655 657 658 659 659 660 661 662 664 665 666 667 669 670 671 672 673 673 674 674 676 676 676 676 676 676
706 704 703 704 705 701 697 696 695 694 694 694 691 689 687 685 683 683 683 681 677 672 674 676 674 671 671 670 669 669 669 669 667 666 665 664 664 664 663 662 662 662 662 663 663 662 661 660 659 659 659 659 659 659 658 658 657 657 656 656 657 657 659 659 660 660 661 662 663 664 665 666 668 669 670 670 671 672 673 673 674 674 675 675 674 673 672
703 703 703 703 701 698 696 695 692 690 691 691 689 687 685 684 684 683 683 681 677 673 673 675 673 671 670 670 669 669 669 669 669 667 666 665 665 665 665 665 664 664 665 665 665 664 664 662 661 660 659 659 660 660 660 660 660 659 659 659 660 660 661 661 662 662 663 663 664 665 666 668 668 669 670 671 672 672 672 672 673 673 672 672 671 670 669
698 700 702 702 699 694 693 692 688 687 688 687 685 684 681 681 683 684 682 680 677 674 673 673 674 673 671 670 669 670 669 669 670 669 668 667 667 667 667 667 666 666 667 667 667 667 665 663 662 660 660 661 661 661 661 662 662 661 661 661 662 663 663 663 664 664 665 665 666 666 667 668 669 670 671 671 672 673 673 673 673 672 671 670 669 668 667
693 694 696 696 694 690 689 687 685 684 684 684 682 681 679 679 681 682 681 680 677 674 673 672 673 674 673 671 671 671 671 671 671 671 670 669 668 669 669 668 669 669 669 669 669 668 667 665 664 662 662 662 662 662 663 663 663 664 663 663 663 664 665 666 666 667 667 667 667 668 668 669 669 670 671 671 672 672 673 673 673 672 671 670 668 666 664
686 685 686 686 685 685 685 684 683 681 680 679 678 678 678 678 679 681 681 679 676 674 674 674 674 674 674 674 673 672 672 673 673 672 672 671 671 670 670 670 671 670 670 670 670 668 667 666 664 664 664 664 664 664 664 664 665 665 665 665 665 666 667 669 670 670 670 670 669 670 670 670 670 670 671 672 672 672 672 672 672 672 670 669 666 663 660
679 678 678 678 678 679 681 680 679 678 677 676 675 675 676 677 678 679 680 678 675 674 675 675 675 674 675 675 675 675 675 675 675 674 674 673 673 673 672 672 671 671 670 670 669 668 666 665 665 665 666 666 665 664 664 665 665 666 667 668 669 670 671 672 672 671 671 672 672 671 671 671 671 671 671 672 672 672 672 672 671 671 670 668 666 663 659
673 673 673 673 673 674 674 674 674 674 673 673 674 674 675 677 678 678 678 677 675 675 676 676 676 676 677 677 678 677 677 676 676 676 676 676 676 675 675 675 673 673 672 671 670 669 668 666 666 667 668 668 667 667 666 666 667 668 669 670 671 672 673 673 673 673 673 673 673 673 672 672 672 672 672 672 672 671 671 671 670 670 669 667 666 665 662
669 668 667 668 668 668 667 668 670 670 670 671 673 674 674 675 676 676 677 676 676 677 678 678 678 678 679 679 679 679 679 679 679 678 677 677 678 678 678 677 677 675 675 674 673 671 670 668 668 668 669 671 671 670 670 670 670 670 670 671 672 673 674 673 673 674 674 674 674 674 674 673 673 673 673 673 672 671 671 670 669 669 668 668 668 667 665
662 662 661 661 661 662 663 664 666 667 668 670 672 672 672 671 672 673 674 674 676 678 679 679 679 679 680 680 680 679 679 680 680 680 680 679 679 679 680 680 679 679 678 677 677 675 673 671 671 671 672 673 674 674 674 673 672 672 673 673 673 674 675 675 674 674 674 675 675 675 675 675 674 674 673 673 672 671 670 670 669 668 668 668 668 668 666
652 652 651 651 653 657 660 661 662 665 668 669 670 671 671 670 670 672 672 672 675 678 679 680 680 680 680 681 682 681 680 681 682 683 683 682 681 682 682 682 683 683 682 682 681 679 676 675 674 674 675 676 676 676 676 675 675 675 675 676 676 677 677 677 676 675 675 675 675 674 675 674 674 674 674 673 672 672 671 670 670 669 669 669 669 668 667
645 646 646 647 650 654 656 658 661 664 666 667 669 670 670 669 669 670 671 672 675 677 679 679 680 681 682 683 684 684 684 684 686 687 686 685 685 685 685 685 686 686 686 686 685 683 681 679 678 678 679 679 679 679 678 677 677 677 678 679 679 679 679 679 678 677 677 676 676 675 675 675 675 675 674 673 672 672 671 671 671 670 670 670 670 669 668
644 644 645 647 650 653 655 657 660 663 665 667 668 669 668 668 669 671 672 673 674 676 678 679 680 682 683 685 686 686 687 687 688 689 688 688 688 687 687 688 688 689 689 689 688 687 685 684 683 682 682 682 681 681 679 678 678 679 680 680 680 680 680 680 679 679 679 678 677 677 677 676 676 675 674 672 671 671 670 670 671 671 671 672 671 671 669
647 646 646 648 650 653 656 658 660 663 666 668 668 667 667 668 670 672 673 674 675 677 679 681 682 684 685 686 686 687 687 688 690 691 691 691 690 689 689 691 692 692 692 692 692 691 689 687 686 685 684 683 683 682 681 680 679 680 681 681 681 681 681 681 681 681 681 680 679 679 678 677 675 674 673 673 672 671 670 670 670 670 671 672 672 672 671
656 654 654 654 655 657 659 661 663 665 668 670 670 670 669 671 673 675 675 676 678 680 682 683 683 684 686 687 688 689 690 691 693 694 695 695 694 693 694 696 698 698 698 699 698 696 693 691 689 688 686 686 686 685 684 683 682 682 683 684 684 684 684 683 683 683 682 682 682 680 679 678 676 675 674 674 673 673 672 671 670 670 670 670 671 672 672
667 666 664 664 664 665 666 667 668 670 672 673 674 673 673 673 676 678 679 680 681 684 685 685 685 687 689 690 692 694 695 696 697 698 699 700 699 699 701 703 705 705 705 704 702 699 695 693 691 690 690 690 689 688 687 687 686 685 686 686 686 687 687 686 686 685 685 685 684 683 682 681 680 679 678 677 675 675 674 673 672 671 670 670 670 671 671
679 676 674 674 675 674 674 674 675 676 679 680 678 678 679 679 678 680 682 685 687 688 688 688 689 691 694 695 697 700 701 702 702 702 703 704 704 703 705 708 709 709 708 706 703 700 698 696 695 695 694 693 692 691 691 690 689 689 689 689 689 690 689 689 688 688 687 687 687 686 685 684 683 683 682 681 679 678 676 675 674 673 672 671 671 671 672
690 688 685 684 683 682 681 682 682 684 687 686 682 682 685 684 682 684 688 692 693 693 693 693 695 698 700 701 702 704 705 705 706 706 707 708 708 708 709 712 713 713 711 708 706 704 702 701 700 699 698 697 696 695 694 693 693 693 693 693 693 693 692 692 691 690 690 690 690 688 687 686 685 685 684 683 682 682 680 678 676 675 674 673 673 673 674
701 699 696 694 693 692 692 693 691 691 693 693 690 690 692 691 689 691 696 698 698 698 699 700 702 704 705 706 707 707 708 709 710 711 711 712 714 714 715 716 718 717 714 711 709 708 706 705 704 703 702 701 701 699 698 697 697 697 697 698 697 697 696 695 695 694 694 694 693 692 691 689 687 686 685 685 684 684 683 682 680 678 677 676 675 675 676
709 707 705 704 704 704 703 703 702 701 702 702 700 700 702 700 699 700 703 703 704 705 706 707 708 709 709 709 710 711 712 713 714 715 716 717 719 719 720 721 721 719 716 714 713 712 711 710 710 709 707 706 705 704 702 702 702 702 702 702 701 701 700 700 699 699 698 697 695 694 693 692 690 689 688 687 687 687 686 685 684 682 679 678 677 676 677
716 714 713 713 713 712 710 710 710 710 710 710 709 710 710 709 709 710 710 711 711 712 713 714 715 716 715 714 715 716 717 718 718 719 719 721 722 723 723 723 723 721 720 718 717 717 716 716 716 715 713 711 709 708 706 706 706 706 706 705 705 705 705 705 704 703 702 700 698 697 695 694 693 692 691 691 690 690 689 688 687 685 683 681 679 678 677
722 721 720 720 719 717 717 717 717 717 716 716 716 717 718 717 717 717 717 717 717 718 719 720 722 722 721 721 722 723 723 723 722 723 724 725 727 728 729 728 727 726 725 724 723 723 724 723 722 720 718 715 713 711 710 710 710 710 709 709 710 710 710 710 709 708 707 704 702 700 698 697 697 696 695 695 694 694 693 692 690 688 686 684 682 681 680
728 727 727 725 725 724 724 724 723 722 721 720 721 723 724 723 722 722 723 724 724 724 725 726 727 727 727 727 727 727 727 727 728 729 730 731 733 735 734 733 732 732 731 731 730 730 730 729 727 724 721 719 716 715 714 714 713 713 713 713 714 714 715 715 714 713 711 709 706 704 702 701 700 700 700 699 699 698 697 696 693 692 690 688 686 684 683
734 733 732 731 731 730 730 729 727 726 725 725 727 729 730 729 728 728 729 729 730 729 730 731 731 731 731 731 731 732 732 733 734 735 736 737 738 739 738 738 738 737 737 736 736 736 735 733 730 727 725 722 720 719 718 718 717 717 717 718 718 718 718 718 717 716 715 713 711 709 707 705 705 704 704 703 702 702 701 700 698 696 694 691 689 687 685
739 739 738 737 736 735 734 732 732 731 732 732 733 735 735 735 734 733 734 734 734 734 734 735 736 736 736 736 736 736 737 737 738 739 740 741 741 741 741 741 741 741 740 740 740 739 737 735 733 731 728 726 724 723 723 722 722 722 723 723 723 723 722 721 721 720 719 717 715 713 712 711 709 708 707 706 706 705 705 704 702 700 698 696 693 690 688
742 742 741 741 740 739 738 738 737 738 739 739 739 739 739 738 737 737 738 738 738 738 738 739 739 740 740 740 740 741 741 741 741 743 744 744 743 743 744 744 743 743 742 742 742 742 740 738 736 734 732 730 728 728 728 728 728 728 728 728 728 727 726 726 725 724 723 721 720 718 717 716 715 713 712 711 710 709 708 708 707 705 703 700 698 695 692
745 745 744 744 744 744 744 743 743 744 744 743 743 743 742 741 741 741 741 741 741 741 742 742 743 743 744 744 744 744 745 745 745 746 746 746 746 746 747 746 746 746 746 746 745 745 744 742 740 738 735 734 733 732 732 732 733 733 733 732 732 731 731 730 729 728 727 725 724 723 722 720 719 718 716 715 714 713 712 711 711 710 707 705 703 701 699
751 750 749 749 749 749 749 748 748 748 747 747 746 746 745 744 744 744 744 744 743 744 744 745 746 746 747 747 748 748 748 749 749 749 749 749 749 750 750 750 750 750 750 749 749 748 747 745 743 741 739 738 737 737 737 737 737 737 737 737 736 736 735 734 733 732 731 730 728 727 725 724 723 721 720 719 718 717 716 715 714 713 712 710 709 707 706
757 756 755 754 754 753 753 752 752 751 751 750 749 749 748 747 747 747 747 747 747 746 747 748 749 749 750 750 751 751 752 752 752 752 752 752 752 753 753 753 754 754 753 752 751 750 749 747 746 744 743 742 741 740 740 740 740 740 741 740 740 739 739 739 738 737 735 734 732 731 729 728 726 725 724 723 722 721 720 719 718 717 716 715 714 713 711